Wind_Speed
12 8 7 5 4 8 12 20 23 18 20 24 22 22 17 14 12 12 11 11 10 11 11 12 15 17 18 23 23 22 20 21 23 23 22 21 19 19 15 13 13 13 14
15 11 5 4 9 7 16 23 19 18 22 21 20 17 15 12 13 13 18 20 21 20 20 20 21 21 20 21 23 23 21 22 23 22 24 22 21 19 15 15 21 21 20
12 9 5 4 5 8 16 17 16 18 19 18 17 18 27 32 33 34 35 34 33 32 27 23 22 20 19 20 21 19 21 27 33 33 31 27 23 19 15 20 18 20 16
8 5 4 6 9 13 15 13 16 16 13 16 25 36 38 38 37 35 32 31 29 27 23 23 22 20 19 23 29 31 32 35 36 31 29 28 27 25 21 22 21 20 20
9 6 6 8 11 13 9 14 13 10 18 31 35 40 39 37 36 33 29 26 24 21 20 20 18 23 26 24 27 31 31 31 29 34 39 33 27 25 29 26 20 20 23
7 9 6 8 6 3 12 11 12 28 34 34 34 36 33 34 37 37 33 30 29 25 27 27 27 28 25 23 26 26 25 27 29 35 40 35 33 29 25 26 18 17 19
8 7 2 2 7 9 7 15 32 36 34 32 33 30 28 31 31 31 31 31 27 26 27 27 23 24 29 34 33 31 25 25 29 35 38 34 34 27 25 22 21 23 25
10 6 8 9 8 8 16 30 34 31 30 31 29 27 30 31 27 27 28 27 25 28 28 30 28 30 31 30 28 28 29 29 30 36 42 36 34 32 30 25 20 19 22
11 11 6 8 12 18 30 33 32 26 29 28 27 28 25 24 23 24 24 24 24 27 26 25 26 29 27 27 29 31 33 33 36 36 40 39 34 34 30 24 19 16 17
9 9 14 18 18 28 33 30 27 26 27 26 25 26 26 26 30 22 22 25 27 27 24 26 28 27 28 30 26 29 37 42 41 36 38 41 42 37 29 34 25 17 15
13 13 19 21 30 34 30 24 25 23 21 15 15 21 21 20 25 23 21 27 28 27 26 26 28 28 26 26 27 32 39 39 43 39 40 41 40 38 36 35 32 28 21
13 16 23 34 37 34 26 23 18 16 14 17 14 20 13 13 20 22 27 28 29 27 28 27 25 24 25 29 28 31 34 41 48 47 42 42 44 47 45 41 36 29 22
17 22 34 38 37 31 25 20 18 18 20 23 18 16 16 20 19 25 29 28 29 25 27 26 26 28 25 23 30 29 29 35 42 48 48 43 50 56 55 53 47 43 31
24 33 40 36 33 25 23 20 19 18 18 19 16 15 18 22 23 30 28 29 30 26 25 26 26 27 27 29 31 35 32 36 39 42 49 47 48 55 56 58 55 52 47
38 40 37 32 25 22 21 20 18 18 19 17 16 21 21 22 24 27 23 21 23 23 26 25 25 22 31 35 36 44 38 44 39 39 46 52 54 57 56 58 60 63 65
37 36 32 25 22 19 17 17 17 18 17 19 17 17 19 23 22 25 23 24 22 20 22 20 19 23 33 35 37 44 45 43 42 51 46 51 52 53 58 60 63 65 70
32 30 23 20 17 13 12 12 12 15 13 12 11 14 21 22 22 21 20 20 19 19 17 14 15 29 34 35 39 43 44 43 45 49 51 51 54 56 55 60 67 68 76
23 22 20 16 13 8 5 7 11 11 8 8 11 16 21 19 18 18 19 18 15 16 16 18 20 26 32 34 38 47 43 46 47 49 48 55 61 64 60 67 68 69 79
17 18 16 12 8 5 3 5 6 5 5 8 11 16 16 18 17 15 13 14 16 19 19 22 24 26 23 31 37 44 40 45 44 46 50 61 64 63 65 69 71 76 82
13 12 13 11 8 6 5 4 5 4 9 12 11 11 12 12 13 16 19 18 19 21 23 22 26 26 30 32 39 40 45 46 42 46 53 61 62 71 64 68 72 76 82
10 9 10 9 6 4 6 7 8 9 11 10 10 6 4 8 10 11 16 22 24 26 27 23 26 30 33 31 33 43 49 49 43 46 51 59 62 60 72 71 71 77 82
11 11 11 9 9 10 10 8 6 8 8 6 4 6 6 5 7 12 17 20 21 22 24 24 26 25 27 30 37 41 51 49 43 49 53 57 62 63 71 71 73 77 83
5 5 5 5 5 4 6 6 5 3 6 6 3 4 6 8 9 11 16 18 22 24 21 23 19 24 25 33 36 35 46 45 44 52 54 59 62 65 69 71 74 77 84
8 6 3 2 1 2 2 1 0 2 2 3 6 7 8 9 9 12 14 16 19 22 20 17 22 29 29 35 39 46 43 41 49 47 57 56 61 68 72 73 74 80 86
13 11 11 9 7 6 4 4 5 6 5 6 9 10 11 11 10 12 14 16 16 21 20 21 26 31 28 33 34 41 46 45 52 50 58 59 65 67 72 76 76 80 86
23 22 18 14 13 13 12 10 9 10 11 11 11 10 10 11 14 14 14 15 18 20 24 24 29 32 31 33 34 37 37 39 50 49 50 59 67 66 72 76 75 81 86
Wind_Direction
185 189 189 210 308 354 342 335 329 336 345 338 341 345 347 352 3 16 17 18 22 37 38 32 28 32 34 44 48 43 40 37 34 21 11 4 355 350 338 341 347 334 303
176 196 204 92 292 306 318 336 334 336 341 349 352 357 17 40 55 59 66 64 63 65 65 62 58 60 51 48 47 47 44 32 25 15 6 1 355 338 332 317 308 311 298
179 200 153 127 275 304 325 330 340 351 353 354 23 61 79 79 80 81 80 79 76 72 75 73 73 72 61 58 53 42 40 34 38 29 16 4 353 348 339 331 332 315 290
182 199 147 244 265 298 329 336 8 360 2 60 84 87 81 77 73 72 76 79 80 84 75 69 66 57 46 50 57 56 54 47 37 24 12 6 8 1 352 347 336 333 322
180 175 230 265 287 314 322 23 9 20 92 101 94 84 79 75 71 68 68 71 78 81 79 72 58 58 59 63 61 49 45 33 17 11 11 3 350 355 357 354 339 334 321
195 224 252 282 294 10 43 22 67 106 108 101 98 94 91 89 85 79 73 70 70 78 77 77 82 73 64 57 46 41 31 19 21 22 13 3 1 352 345 349 351 339 315
207 254 238 143 115 58 45 96 116 111 108 108 103 82 78 82 79 74 72 71 77 84 83 76 78 55 58 56 50 47 38 30 21 27 19 15 15 2 354 331 319 313 317
230 164 144 128 73 87 112 125 117 117 111 107 92 75 69 72 70 61 61 65 79 82 82 75 67 58 55 53 53 46 39 37 36 36 29 13 8 9 3 10 352 343 319
149 142 126 98 113 119 128 129 124 117 109 101 85 83 69 63 61 56 48 56 75 82 77 67 55 50 46 47 54 49 46 41 41 34 36 35 27 21 12 358 348 353 358
126 107 111 117 125 127 131 126 124 114 109 95 76 73 67 63 45 42 50 76 87 82 72 61 52 39 42 53 58 60 57 47 41 38 34 33 33 36 33 29 20 356 354
117 111 117 123 126 131 129 122 123 121 111 94 79 57 61 59 30 41 70 89 84 74 62 51 44 49 57 64 69 54 52 44 39 38 29 26 23 26 23 27 31 26 10
122 119 126 127 127 124 123 103 118 128 103 89 70 46 51 45 32 52 78 68 67 64 56 55 57 61 70 70 52 52 39 37 37 37 29 21 26 25 27 26 23 20 7
124 124 128 126 126 121 110 89 96 111 77 83 68 28 46 51 44 68 69 62 60 63 66 79 75 78 73 60 52 45 43 39 29 25 21 15 19 19 21 18 15 16 10
128 128 129 127 126 123 103 89 83 94 77 64 40 37 56 61 71 76 69 74 73 78 83 87 88 73 62 51 42 32 34 25 31 26 22 20 14 15 14 14 11 7 9
124 126 124 122 124 119 100 83 77 77 69 50 52 59 64 66 79 78 65 65 75 85 94 93 82 63 49 34 23 16 12 14 21 19 18 14 11 11 12 8 5 5 3
127 129 126 124 120 110 87 75 68 67 63 68 52 62 70 73 72 66 69 56 73 73 91 80 73 49 29 22 17 14 10 7 12 16 13 10 7 6 11 7 5 2 0
132 134 134 131 126 107 81 83 73 63 56 59 60 72 79 68 68 66 62 59 59 82 81 91 39 25 16 10 13 11 8 11 10 10 12 9 10 11 7 7 4 1 360
138 147 146 143 135 112 78 61 58 56 58 69 77 90 84 77 70 70 61 51 39 48 39 32 13 6 1 359 3 4 7 8 9 9 3 6 7 10 2 1 3 359 360
144 153 152 148 137 124 96 78 44 55 70 91 100 103 83 81 63 56 48 34 18 8 359 350 355 353 345 351 352 358 7 7 6 6 4 5 3 4 3 359 358 358 358
134 149 161 153 164 169 154 120 119 118 109 124 121 111 97 73 52 49 37 24 11 5 2 358 1 1 358 14 1 10 6 5 3 4 6 7 2 8 359 358 358 356 356
130 132 146 165 181 154 124 128 121 113 114 119 124 108 68 41 58 34 25 19 15 15 8 2 11 5 7 4 3 358 3 3 2 3 3 3 359 358 358 358 356 356 354
104 117 126 127 126 120 123 122 109 81 79 67 29 24 41 33 11 13 7 7 10 4 360 360 12 14 18 3 4 4 1 357 358 2 4 0 356 356 355 358 354 354 352
116 121 110 109 124 124 113 110 115 93 69 55 17 328 324 320 324 338 344 356 360 359 355 358 11 7 17 356 4 356 0 2 358 360 360 357 356 355 357 355 354 353 349
182 184 185 146 166 252 285 336 82 176 287 342 326 335 329 306 309 308 325 342 349 355 0 13 8 13 10 358 359 353 357 359 359 356 360 356 357 358 358 354 351 351 349
238 220 213 214 238 256 255 246 266 292 304 297 315 319 327 324 306 300 301 315 330 342 338 347 348 356 6 355 8 3 358 352 348 353 1 353 353 357 356 351 350 350 348
249 251 243 237 235 238 251 259 267 271 278 281 290 299 306 319 315 317 316 317 316 329 329 324 335 344 354 7 1 348 347 342 341 350 351 344 349 351 352 347 347 348 347
Height
10974 10976 10977 10979 10980 10980 10980 10979 10977 10976 10974 10971 10968 10965 10961 10958 10957 10957 10957 10957 10956 10956 10957 10957 10958 10957 10956 10954 10954 10953 10953 10952 10950 10947 10944 10941 10938 10936 10935 10934 10933 10932 10931
10973 10975 10977 10977 10978 10980 10980 10980 10977 10975 10972 10969 10967 10964 10960 10957 10956 10956 10956 10956 10957 10958 10958 10958 10959 10959 10958 10957 10957 10957 10956 10953 10950 10947 10944 10940 10937 10932 10933 10932 10931 10930 10930
10972 10975 10976 10977 10980 10981 10982 10979 10976 10973 10971 10969 10967 10966 10963 10961 10960 10959 10959 10959 10958 10960 10962 10963 10962 10961 10960 10961 10961 10959 10957 10955 10952 10949 10944 10939 10936 10935 10933 10931 10929 10926 10926
10973 10975 10976 10979 10980 10982 10982 10979 10975 10973 10971 10970 10970 10969 10967 10966 10965 10964 10964 10964 10964 10965 10965 10966 10966 10965 10964 10964 10962 10960 10959 10957 10954 10949 10943 10939 10936 10934 10934 10931 10928 10928 10924
10973 10975 10977 10978 10979 10981 10981 10977 10976 10973 10973 10973 10973 10970 10969 10970 10970 10970 10970 10970 10969 10968 10968 10967 10967 10968 10966 10965 10964 10962 10961 10958 10951 10948 10943 10939 10936 10934 10932 10929 10927 10926 10925
10973 10976 10978 10978 10979 10980 10978 10979 10977 10976 10977 10977 10976 10976 10974 10974 10974 10973 10973 10973 10972 10971 10971 10970 10970 10970 10970 10969 10968 10965 10962 10957 10954 10948 10941 10936 10934 10932 10929 10926 10924 10922 10921
10973 10975 10977 10978 10980 10978 10980 10980 10981 10981 10981 10982 10981 10981 10980 10980 10979 10978 10977 10975 10974 10974 10974 10975 10974 10974 10973 10971 10969 10967 10961 10957 10953 10948 10940 10935 10933 10930 10927 10922 10919 10918 10916
10975 10976 10977 10977 10977 10979 10981 10983 10985 10985 10986 10987 10987 10986 10985 10984 10983 10982 10980 10977 10976 10975 10976 10977 10977 10976 10974 10972 10970 10967 10963 10957 10953 10949 10943 10936 10931 10927 10924 10920 10915 10913 10911
10975 10976 10976 10976 10979 10981 10983 10987 10987 10988 10990 10991 10991 10990 10988 10988 10987 10985 10984 10981 10979 10978 10979 10979 10977 10977 10975 10973 10971 10967 10964 10959 10955 10952 10946 10938 10931 10928 10924 10918 10913 10910 10907
10975 10974 10976 10979 10982 10985 10989 10991 10991 10993 10994 10994 10994 10992 10991 10989 10990 10988 10986 10983 10983 10982 10981 10981 10980 10979 10977 10975 10973 10971 10968 10962 10958 10955 10949 10942 10935 10929 10926 10920 10916 10910 10906
10975 10977 10979 10982 10985 10989 10994 10995 10997 10997 10997 10997 10996 10994 10992 10991 10991 10989 10987 10986 10986 10986 10985 10985 10982 10980 10978 10976 10976 10973 10969 10965 10960 10956 10950 10944 10937 10932 10927 10920 10914 10909 10905
10977 10978 10981 10985 10989 10994 10997 11000 11000 10999 11000 11000 10997 10996 10994 10994 10993 10992 10991 10991 10990 10989 10988 10986 10984 10981 10981 10979 10976 10973 10969 10964 10961 10956 10950 10944 10938 10932 10924 10919 10914 10908 10902
10980 10982 10986 10990 10993 10997 11002 11003 11002 11002 11001 11000 11000 10998 10997 10995 10995 10995 10994 10994 10993 10992 10990 10989 10986 10985 10984 10981 10978 10974 10969 10964 10959 10952 10947 10942 10935 10929 10922 10917 10909 10903 10899
10983 10987 10991 10995 10999 11002 11004 11005 11004 11004 11003 11002 11002 10999 10999 10998 10998 10996 10998 10998 10996 10995 10993 10991 10989 10988 10986 10983 10979 10974 10968 10964 10958 10952 10946 10940 10934 10927 10920 10911 10907 10902 10896
10989 10993 10997 11000 11003 11005 11007 11008 11007 11004 11004 11004 11004 11002 11002 11002 11000 10999 11001 10999 10998 10997 10994 10992 10991 10990 10988 10983 10979 10974 10969 10965 10958 10951 10945 10939 10933 10928 10919 10911 10905 10897 10888
10996 10999 11002 11005 11006 11007 11008 11009 11008 11006 11006 11007 11007 11007 11006 11006 11005 11002 11002 11002 11000 10998 10997 10995 10993 10991 10988 10984 10980 10975 10969 10963 10957 10950 10944 10938 10933 10926 10918 10911 10902 10892 10882
11002 11004 11007 11008 11008 11009 11010 11012 11010 11009 11009 11010 11011 11010 11008 11008 11008 11007 11005 11003 11003 11002 10999 10996 10994 10990 10987 10982 10979 10974 10968 10962 10954 10948 10941 10937 10931 10923 10914 10907 10898 10889 10879
11007 11008 11010 11011 11012 11012 11013 11012 11011 11011 11012 11012 11011 11012 11012 11011 11011 11009 11007 11007 11005 11003 11000 10997 10995 10991 10987 10983 10978 10972 10967 10961 10954 10949 10943 10936 10927 10917 10910 10901 10892 10881 10872
11010 11011 11012 11013 11014 11014 11014 11013 11012 11013 11013 11013 11013 11013 11013 11013 11012 11011 11010 11008 11006 11003 11000 10997 10994 10992 10987 10983 10978 10972 10967 10960 10954 10948 10943 10935 10923 10913 10904 10897 10886 10876 10865
11011 11012 11013 11015 11016 11016 11015 11014 11014 11013 11012 11013 11014 11014 11015 11015 11014 11012 11010 11008 11006 11003 11001 10997 10994 10990 10985 10982 10978 10973 10967 10960 10952 10945 10938 10929 10921 10909 10904 10894 10882 10871 10858
11014 11014 11015 11016 11017 11016 11016 11014 11015 11015 11013 11015 11015 11016 11015 11015 11015 11014 11011 11009 11006 11004 11001 10997 10994 10990 10985 10984 10979 10974 10967 10959 10951 10943 10936 10927 10916 10909 10899 10889 10878 10865 10854
11017 11017 11017 11018 11018 11017 11018 11017 11016 11016 11016 11016 11016 11015 11015 11014 11014 11013 11011 11009 11007 11005 11002 10998 10996 10993 10992 10987 10981 10975 10966 10958 10950 10943 10935 10926 10916 10906 10895 10882 10872 10859 10850
11018 11019 11019 11019 11019 11019 11019 11019 11019 11018 11018 11017 11017 11017 11016 11016 11015 11014 11012 11010 11008 11005 11002 11000 10997 10994 10991 10988 10982 10974 10966 10958 10950 10942 10933 10925 10917 10907 10896 10882 10870 10857 10846
11018 11018 11019 11019 11019 11019 11018 11018 11018 11018 11018 11018 11019 11018 11018 11017 11017 11014 11013 11012 11009 11007 11004 11001 10997 10993 10989 10983 10978 10972 10964 10956 10949 10941 10932 10926 10917 10906 10894 10882 10869 10855 10839
11016 11017 11017 11018 11018 11018 11018 11018 11018 11018 11018 11018 11018 11017 11016 11015 11014 11013 11012 11011 11009 11007 11004 11000 10996 10991 10988 10981 10975 10968 10960 10954 10947 10940 10932 10923 10916 10904 10892 10880 10866 10851 10835
11013 11014 11016 11016 11016 11016 11016 11016 11016 11016 11015 11016 11016 11016 11015 11013 11011 11010 11009 11008 11006 11004 11001 10997 10994 10990 10987 10981 10976 10970 10960 10952 10946 10939 10930 10920 10912 10903 10894 10882 10866 10848 10831